| time (UTC) | temp F | wind direction | speed knots | gust knots | rain 1hr in | rain 24hr in | rain mn in | humidity % | barometer mb |
| 20260906164552 | 88 | 0 | 0.0 | 4.3 | 0.00 | 0.00 | 0.00 | 75 | 1017.3 |
| 20260906163045 | 87 | 64 | 0.0 | 3.5 | 0.00 | 0.00 | 0.00 | 76 | 1017.5 |
| 20260906161547 | 86 | 38 | 0.9 | 3.5 | 0.00 | 0.00 | 0.00 | 76 | 1017.4 |
| 20260906160046 | 86 | 59 | 0.9 | 2.6 | 0.00 | 0.00 | 0.00 | 77 | 1017.3 |
| 20260906154601 | 85 | 108 | 0.0 | 4.3 | 0.00 | 0.00 | 0.00 | 78 | 1017.4 |
| 20260906153057 | 84 | 0 | 0.0 | 3.5 | 0.00 | 0.00 | 0.00 | 78 | 1017.3 |
| 20260906151551 | 83 | 144 | 0.9 | 5.2 | 0.00 | 0.00 | 0.00 | 79 | 1017.3 |
| 20260906150100 | 82 | 0 | 0.9 | 5.2 | 0.00 | 0.00 | 0.00 | 79 | 1017.1 |
| 20260906144557 | 82 | 15 | 0.0 | 2.6 | 0.00 | 0.00 | 0.00 | 80 | 1017.1 |
| 20260906143107 | 81 | 208 | 0.0 | 3.5 | 0.00 | 0.00 | 0.00 | 80 | 1017.2 |
| 20260906141559 | 80 | 0 | 0.9 | 3.5 | 0.00 | 0.00 | 0.00 | 81 | 1017.3 |
| 20260906140057 | 79 | 0 | 0.0 | 4.3 | 0.00 | 0.00 | 0.00 | 82 | 1017.0 |
| 20260906134544 | 79 | 11 | 0.0 | 3.5 | 0.00 | 0.00 | 0.00 | 83 | 1017.0 |
| 20260906133055 | 78 | 0 | 0.0 | 3.5 | 0.00 | 0.00 | 0.00 | 85 | 1017.1 |
| 20260906131542 | 78 | 0 | 0.0 | 3.5 | 0.00 | 0.00 | 0.00 | 86 | 1016.9 |
| 20260906130050 | 78 | 59 | 0.9 | 4.3 | 0.00 | 0.00 | 0.00 | 86 | 1016.6 |
| 20260906124547 | 77 | 0 | 0.0 | 2.6 | 0.00 | 0.00 | 0.00 | 88 | 1016.5 |
| 20260906123044 | 77 | 29 | 0.0 | 3.5 | 0.00 | 0.00 | 0.00 | 88 | 1016.5 |
| 20260906121543 | 77 | 0 | 0.0 | 2.6 | 0.00 | 0.00 | 0.00 | 89 | 1016.3 |
| 20260906120054 | 77 | 0 | 0.0 | 2.6 | 0.00 | 0.00 | 0.00 | 89 | 1016.2 |
| 20260906114556 | 78 | 0 | 0.0 | 2.6 | 0.00 | 0.00 | 0.00 | 89 | 1016.2 |
| 20260906113043 | 78 | 62 | 0.0 | 5.2 | 0.00 | 0.00 | 0.00 | 88 | 1016.2 |
| 20260906111547 | 78 | 0 | 0.0 | 3.5 | 0.00 | 0.00 | 0.00 | 88 | 1016.1 |
| 20260906110046 | 79 | 0 | 0.0 | 2.6 | 0.00 | 0.00 | 0.00 | 87 | 1016.1 |
| 20260906104547 | 79 | 0 | 0.0 | 4.3 | 0.00 | 0.00 | 0.00 | 87 | 1016.0 |
| 20260906103054 | 80 | 0 | 0.0 | 3.5 | 0.00 | 0.00 | 0.00 | 86 | 1015.8 |
| 20260906101554 | 80 | 106 | 0.0 | 2.6 | 0.00 | 0.00 | 0.00 | 85 | 1015.7 |
| 20260906100057 | 80 | 53 | 0.0 | 3.5 | 0.00 | 0.00 | 0.00 | 84 | 1015.6 |
| 20260906094559 | 81 | 0 | 0.0 | 2.6 | 0.00 | 0.00 | 0.00 | 83 | 1015.5 |
| 20260906093052 | 81 | 0 | 0.0 | 2.6 | 0.00 | 0.00 | 0.00 | 83 | 1015.2 |
| 20260906091546 | 81 | 21 | 0.0 | 1.7 | 0.00 | 0.00 | 0.00 | 82 | 1015.0 |
| 20260906090045 | 81 | 0 | 0.0 | 2.6 | 0.00 | 0.00 | 0.00 | 82 | 1014.9 |
| 20260906084544 | 81 | 70 | 0.0 | 1.7 | 0.00 | 0.00 | 0.00 | 81 | 1014.8 |
| 20260906083050 | 81 | 0 | 0.0 | 2.6 | 0.00 | 0.00 | 0.00 | 81 | 1014.8 |
| 20260906081545 | 81 | 0 | 0.0 | 0.0 | 0.00 | 0.00 | 0.00 | 80 | 1014.9 |
| 20260906080053 | 82 | 0 | 0.0 | 0.0 | 0.00 | 0.00 | 0.00 | 79 | 1014.7 |
| 20260906074549 | 82 | 0 | 0.0 | 1.7 | 0.00 | 0.00 | 0.00 | 78 | 1014.6 |
| 20260906073051 | 82 | 0 | 0.0 | 1.7 | 0.00 | 0.00 | 0.00 | 78 | 1014.9 |
| 20260906071544 | 82 | 0 | 0.0 | 1.7 | 0.00 | 0.00 | 0.00 | 77 | 1014.9 |
| 20260906070052 | 83 | 0 | 0.0 | 1.7 | 0.00 | 0.00 | 0.00 | 77 | 1014.8 |
| 20260906064546 | 82 | 0 | 0.0 | 1.7 | 0.00 | 0.00 | 0.00 | 77 | 1015.1 |
| 20260906063047 | 82 | 0 | 0.0 | 0.0 | 0.00 | 0.00 | 0.00 | 77 | 1015.1 |
| 20260906061544 | 82 | 0 | 0.0 | 0.0 | 0.00 | 0.00 | 0.00 | 77 | 1015.1 |
| 20260906060051 | 81 | 0 | 0.0 | 1.7 | 0.00 | 0.00 | 0.00 | 76 | 1015.1 |
| 20260906054601 | 81 | 0 | 0.0 | 1.7 | 0.00 | 0.00 | 0.00 | 77 | 1015.1 |
| 20260906053043 | 81 | 0 | 0.0 | 0.0 | 0.00 | 0.00 | 0.00 | 77 | 1015.2 |
| 20260906051544 | 81 | 0 | 0.0 | 0.0 | 0.00 | 0.00 | 0.00 | 77 | 1015.1 |
| 20260906044546 | 81 | 0 | 0.0 | 0.0 | 0.00 | 0.00 | 0.00 | 76 | 1015.0 |
| 20260906043043 | 81 | 0 | 0.0 | 0.0 | 0.00 | 0.00 | 0.00 | 76 | 1014.9 |
| 20260906041551 | 81 | 0 | 0.0 | 0.0 | 0.00 | 0.00 | 0.00 | 76 | 1014.9 |
| 20260906040049 | 82 | 0 | 0.0 | 0.0 | 0.00 | 0.00 | 0.00 | 75 | 1014.6 |
| 20260906034549 | 82 | 0 | 0.0 | 0.0 | 0.00 | 0.00 | 0.00 | 74 | 1014.7 |
| 20260906033044 | 82 | 0 | 0.0 | 0.0 | 0.00 | 0.00 | 0.00 | 74 | 1014.6 |
| 20260906031608 | 82 | 0 | 0.0 | 0.0 | 0.00 | 0.00 | 0.00 | 74 | 1014.5 |
| 20260906030045 | 83 | 0 | 0.0 | 0.0 | 0.00 | 0.00 | 0.00 | 72 | 1014.4 |
| 20260906024601 | 84 | 0 | 0.0 | 0.0 | 0.00 | 0.00 | 0.00 | 73 | 1014.3 |
| 20260906023100 | 84 | 0 | 0.0 | 0.0 | 0.00 | 0.00 | 0.00 | 72 | 1014.2 |
| 20260906021552 | 85 | 0 | 0.0 | 0.0 | 0.00 | 0.00 | 0.00 | 71 | 1013.8 |
| 20260906020058 | 85 | 0 | 0.0 | 0.0 | 0.00 | 0.00 | 0.00 | 71 | 1013.8 |
| 20260906014555 | 85 | 0 | 0.0 | 0.0 | 0.00 | 0.00 | 0.00 | 70 | 1013.7 |
| 20260906013048 | 86 | 0 | 0.0 | 0.0 | 0.00 | 0.00 | 0.00 | 68 | 1013.3 |
| 20260906011555 | 87 | 0 | 0.0 | 0.0 | 0.00 | 0.00 | 0.00 | 66 | 1013.3 |
| 20260906010054 | 88 | 0 | 0.0 | 0.0 | 0.00 | 0.00 | 0.00 | 65 | 1013.1 |
| 20260906004550 | 89 | 0 | 0.0 | 0.0 | 0.00 | 0.00 | 0.00 | 63 | 1013.0 |
| 20260906003047 | 91 | 0 | 0.0 | 0.0 | 0.00 | 0.00 | 0.00 | 59 | 1013.0 |
| 20260906001555 | 93 | 0 | 0.0 | 0.0 | 0.00 | 0.00 | 0.00 | 56 | 1013.0 |
| 20260906000059 | 94 | 0 | 0.0 | 2.6 | 0.00 | 0.00 | 0.00 | 55 | 1013.2 |
| 20260905234553 | 94 | 0 | 0.0 | 0.0 | 0.00 | 0.00 | 0.00 | 57 | 1013.1 |
| 20260905233053 | 95 | 0 | 0.0 | 2.6 | 0.00 | 0.00 | 0.00 | 55 | 1012.9 |
| 20260905231554 | 96 | 0 | 0.0 | 1.7 | 0.00 | 0.00 | 0.00 | 53 | 1012.9 |
| 20260905230049 | 96 | 0 | 0.0 | 0.9 | 0.00 | 0.00 | 0.00 | 49 | 1013.1 |
| 20260905224542 | 96 | 0 | 0.0 | 1.7 | 0.00 | 0.00 | 0.00 | 48 | 1012.9 |
| 20260905223050 | 97 | 0 | 0.9 | 2.6 | 0.00 | 0.00 | 0.00 | 47 | 1012.9 |
| 20260905221553 | 97 | 323 | 0.9 | 4.3 | 0.00 | 0.00 | 0.00 | 45 | 1013.0 |
| 20260905220052 | 97 | 0 | 0.0 | 1.7 | 0.00 | 0.00 | 0.00 | 45 | 1013.1 |
| 20260905214558 | 97 | 298 | 0.0 | 4.3 | 0.00 | 0.00 | 0.00 | 47 | 1013.3 |
| 20260905213059 | 97 | 343 | 2.6 | 4.3 | 0.00 | 0.00 | 0.00 | 46 | 1013.2 |
| 20260905211606 | 97 | 0 | 0.9 | 3.5 | 0.00 | 0.00 | 0.00 | 48 | 1013.4 |
| 20260905210059 | 97 | 351 | 1.7 | 4.3 | 0.00 | 0.00 | 0.00 | 47 | 1013.5 |
| 20260905204548 | 97 | 0 | 1.7 | 4.3 | 0.00 | 0.00 | 0.00 | 46 | 1013.7 |
| 20260905203059 | 97 | 299 | 0.0 | 3.5 | 0.00 | 0.00 | 0.00 | 48 | 1014.0 |
| 20260905201556 | 97 | 323 | 0.9 | 5.2 | 0.00 | 0.00 | 0.00 | 48 | 1014.0 |
| 20260905200105 | 97 | 0 | 0.0 | 3.5 | 0.00 | 0.00 | 0.00 | 48 | 1014.2 |
| 20260905194548 | 97 | 319 | 0.9 | 3.5 | 0.00 | 0.00 | 0.00 | 48 | 1014.3 |
| 20260905193059 | 97 | 0 | 0.0 | 7.0 | 0.00 | 0.00 | 0.00 | 48 | 1014.4 |
| 20260905191550 | 96 | 204 | 0.9 | 4.3 | 0.00 | 0.00 | 0.00 | 47 | 1014.5 |
| 20260905190053 | 96 | 329 | 1.7 | 4.3 | 0.00 | 0.00 | 0.00 | 46 | 1014.7 |
| 20260905184551 | 96 | 296 | 0.9 | 4.3 | 0.00 | 0.00 | 0.00 | 49 | 1014.9 |
| 20260905183057 | 95 | 268 | 0.9 | 3.5 | 0.00 | 0.00 | 0.00 | 52 | 1015.0 |
| 20260905181550 | 95 | 317 | 0.9 | 4.3 | 0.00 | 0.00 | 0.00 | 52 | 1015.1 |
| 20260905180105 | 94 | 317 | 1.7 | 3.5 | 0.00 | 0.00 | 0.00 | 54 | 1015.4 |
| 20260905174556 | 93 | 334 | 0.9 | 4.3 | 0.00 | 0.00 | 0.00 | 58 | 1015.6 |
| 20260905173100 | 93 | 0 | 0.9 | 3.5 | 0.00 | 0.00 | 0.00 | 62 | 1015.7 |
| 20260905171546 | 92 | 0 | 0.9 | 2.6 | 0.00 | 0.00 | 0.00 | 62 | 1015.7 |
| 20260905170042 | 92 | 0 | 0.0 | 4.3 | 0.00 | 0.00 | 0.00 | 64 | 1016.1 |